Temp
7 7 7 7 7 7 7 7 7 7 8 8 8 8 8 9 12 12 11 17 19 19 19 20 20 20 21 20 21 19 19 18 21 23 25 27 26 28 29 30 29 30 30 30 29
7 7 7 7 7 7 7 7 8 8 8 8 8 8 8 9 10 8 17 16 16 17 16 18 20 20 18 20 20 20 17 20 23 25 25 26 25 26 28 27 28 30 30 31 31
7 7 7 7 7 7 7 7 7 8 8 8 8 7 7 9 9 13 15 14 15 17 16 17 18 20 19 19 19 19 21 23 24 25 25 26 25 26 26 26 26 28 28 27 30
6 7 7 7 7 7 7 7 7 7 7 7 7 7 8 9 14 17 16 16 17 17 16 16 17 18 17 19 20 20 21 23 24 24 25 25 25 25 25 25 27 27 27 27 27
6 6 7 7 7 7 7 7 7 7 7 7 7 8 8 7 9 16 16 16 15 16 16 15 16 18 17 18 21 21 21 22 23 24 24 24 24 24 24 26 27 27 27 25 25
7 7 6 6 6 7 9 11 10 10 8 8 8 8 8 7 15 15 15 14 14 13 15 15 16 18 19 18 21 21 21 21 22 22 23 24 23 24 25 25 25 26 26 25 25
7 9 10 10 11 12 13 13 12 9 9 8 8 8 8 9 15 14 13 14 15 12 13 16 17 17 18 19 18 20 20 20 20 21 21 24 23 24 25 26 25 26 27 27 25
6 9 10 10 11 12 13 14 14 13 13 10 8 8 7 15 14 14 15 15 15 15 11 14 16 16 17 18 20 19 19 19 22 20 22 23 23 26 26 26 25 26 26 26 26
6 7 9 9 10 11 13 13 13 12 12 10 8 8 9 15 13 16 16 15 15 16 14 15 16 15 17 16 16 17 19 18 20 22 22 23 23 24 26 25 24 24 23 23 24
6 7 9 10 11 12 13 14 14 13 11 9 9 9 12 15 16 16 16 16 15 15 15 15 15 14 13 14 16 16 16 19 19 21 22 21 22 23 24 24 24 24 24 24 24
6 6 10 11 12 13 13 13 9 9 11 10 12 12 13 15 16 16 16 16 16 15 13 15 14 14 16 17 18 17 18 18 20 21 22 21 22 22 22 22 23 23 24 25 25
6 7 9 12 12 12 12 11 11 11 8 12 11 12 13 14 13 15 16 14 15 14 14 13 13 15 17 16 16 16 16 16 17 19 19 19 19 19 20 20 21 23 23 23 22
7 8 11 12 12 12 11 12 11 11 8 11 13 14 14 14 15 14 15 15 14 13 13 12 14 16 17 17 16 16 16 16 17 18 19 18 19 20 21 20 22 22 22 22 22
9 6 10 13 12 11 11 12 12 11 7 12 14 16 15 14 15 18 16 15 14 14 14 12 14 15 15 15 16 15 17 18 18 17 16 19 17 20 21 21 21 21 21 22 20
7 8 10 9 11 10 12 12 12 11 9 14 14 16 15 14 15 17 17 14 14 14 15 14 15 15 15 15 16 16 17 17 17 16 17 17 15 20 20 20 21 22 23 23 20
11 9 10 10 10 13 12 12 11 8 8 12 13 13 12 13 15 15 15 16 14 13 13 13 16 15 15 16 17 18 16 15 16 14 13 16 17 19 19 21 22 21 21 21 22
11 10 11 11 11 12 12 9 8 7 11 12 11 12 12 11 13 13 13 12 12 12 13 13 14 15 16 15 16 17 13 12 12 12 14 17 16 19 19 20 21 22 20 19 19
12 12 13 13 13 12 11 8 9 9 10 13 12 12 11 12 12 12 12 10 12 12 12 11 12 14 15 15 14 13 13 12 14 13 14 17 16 19 20 22 21 20 20 19 18
12 12 12 12 13 12 7 7 6 10 12 12 11 11 11 12 12 11 11 11 12 11 10 11 12 14 16 16 15 14 13 15 14 15 14 15 18 19 21 22 22 21 21 19 19
9 9 11 12 12 12 6 9 9 11 12 12 10 11 10 10 10 10 10 12 12 13 11 11 11 13 15 17 16 15 15 14 11 14 14 15 16 17 19 19 20 20 19 18 19
9 8 11 12 12 6 5 7 10 12 12 11 10 10 10 10 10 10 11 12 12 12 11 11 11 14 15 15 14 15 14 14 13 12 14 15 15 16 19 19 19 18 18 18 19
5 9 11 11 6 2 5 8 10 11 11 11 11 10 10 10 9 10 11 12 12 12 10 11 10 10 13 14 14 14 13 13 13 14 14 13 14 18 19 17 17 19 19 19 15
5 6 11 11 4 3 6 8 9 10 10 10 10 11 11 9 8 9 10 12 12 12 11 11 9 10 11 13 13 13 13 13 12 11 12 14 16 19 18 19 18 18 19 18 16
5 5 4 3 4 6 6 8 10 10 9 10 10 10 9 9 10 9 10 11 12 12 13 11 9 9 9 11 11 11 12 13 12 10 14 15 16 17 18 16 17 18 18 19 16
3 4 5 3 4 5 6 8 9 9 10 9 8 9 9 9 9 9 10 10 10 11 10 10 10 9 9 10 11 11 11 11 11 12 11 15 14 15 16 16 17 17 19 19 16
3 4 3 3 4 6 7 8 9 9 9 9 8 10 9 8 9 8 9 9 9 9 10 8 9 10 9 11 10 10 11 12 12 12 12 13 13 15 17 16 17 18 18 18 17
5 4 3 5 4 5 5 8 9 8 9 9 9 8 9 10 10 9 9 9 9 9 9 9 9 8 10 11 10 10 12 12 12 13 13 12 14 15 17 16 16 16 17 18 18
Height
823 820 817 814 811 809 805 803 801 799 797 795 792 789 785 779 776 770 766 761 762 759 761 762 762 763 764 764 763 768 790 794 776 771 758 745 750 734 728 731 728 724 725 721 719
821 818 815 813 811 808 805 802 798 796 795 793 791 788 784 779 773 764 756 756 759 758 760 761 760 761 765 763 762 770 785 774 754 749 752 743 745 743 737 736 733 727 718 719 721
821 818 815 812 809 806 803 800 797 793 791 790 788 785 782 778 773 760 757 758 758 757 757 758 756 756 762 760 760 759 761 750 743 744 744 741 739 733 739 743 734 729 724 723 723
821 818 814 810 807 803 799 796 793 791 789 786 785 784 782 780 777 756 756 754 754 753 753 755 756 757 762 758 752 760 746 741 735 739 742 745 736 737 736 733 724 721 721 722 723
820 816 812 808 804 800 796 792 789 787 786 785 785 785 784 785 768 756 755 753 754 753 752 752 753 752 758 752 750 748 743 741 735 737 738 738 736 737 727 720 715 716 717 718 718
818 814 809 805 801 797 792 788 786 783 781 781 782 784 786 789 757 755 753 751 751 753 750 749 747 746 748 747 744 737 740 739 737 739 738 742 734 733 722 718 716 718 714 711 711
817 812 808 803 798 794 790 786 783 780 777 777 779 781 781 768 755 753 752 749 748 747 747 746 745 749 742 743 738 737 746 742 740 740 741 736 734 720 719 717 717 714 708 705 706
817 812 808 803 799 794 790 786 782 778 776 775 777 778 773 754 753 750 749 746 744 743 744 743 744 745 744 737 736 743 747 753 730 740 737 737 719 711 706 712 711 708 704 702 696
815 810 806 802 798 793 788 784 781 778 776 776 779 780 769 752 748 744 744 743 741 740 740 741 742 743 741 750 755 749 741 746 741 726 733 734 708 711 704 711 709 706 704 702 698
813 808 803 800 797 792 787 783 778 777 776 777 778 781 758 752 745 741 741 740 740 740 741 744 743 744 748 750 742 743 746 735 740 726 725 732 709 713 710 709 704 702 698 696 694
811 806 801 798 795 792 788 782 785 783 779 779 772 771 760 749 745 738 737 738 736 741 748 741 748 741 731 732 730 736 739 738 730 722 723 725 716 714 711 708 705 699 694 689 685
809 804 799 797 794 792 791 791 795 798 790 768 765 766 755 753 750 737 736 740 735 745 743 748 743 735 730 732 736 739 742 744 737 727 729 729 724 717 713 706 702 695 690 688 685
807 802 797 795 793 793 792 792 791 790 795 772 761 759 753 750 745 740 738 736 737 742 744 749 738 728 730 731 736 738 741 740 743 732 723 728 718 711 698 697 690 685 682 680 678
804 800 796 792 794 792 790 789 788 786 802 777 762 756 752 748 745 735 735 738 737 737 734 741 731 729 732 733 734 741 730 729 733 740 749 724 730 708 697 690 688 685 679 672 674
802 797 794 792 791 790 789 787 784 786 805 770 766 757 754 754 746 736 732 733 734 732 732 732 726 727 729 727 723 728 726 732 736 740 740 736 749 683 689 689 680 672 665 661 663
797 793 790 790 789 787 786 784 784 804 811 775 767 766 763 755 746 737 735 730 730 730 729 724 717 720 722 718 717 715 725 733 736 746 754 738 745 684 693 677 669 665 662 657 655
792 786 786 787 787 785 783 783 804 813 784 779 774 768 766 763 749 743 740 739 737 738 728 721 717 712 713 722 718 719 737 754 758 762 740 722 740 684 671 667 666 663 663 657 653
790 786 785 786 786 785 783 794 802 801 789 776 772 768 770 759 751 747 744 752 735 735 733 736 725 713 707 714 723 728 733 742 736 744 734 720 719 684 667 654 659 662 658 655 652
788 787 786 786 785 785 791 811 817 794 782 779 774 772 768 760 760 757 749 750 738 743 744 735 723 712 701 700 711 720 730 718 728 724 733 717 692 677 664 662 657 660 658 655 649
790 789 789 788 787 785 801 798 794 786 781 779 784 774 775 769 768 763 753 742 740 738 741 737 733 720 706 698 703 710 711 728 743 731 731 712 702 691 673 669 663 663 661 653 644
792 793 791 789 788 795 814 804 790 781 780 782 777 774 771 772 768 765 753 740 739 740 740 738 734 716 710 711 713 712 716 715 724 730 720 715 701 673 664 666 668 666 660 653 644
799 800 791 789 804 816 813 798 790 781 779 778 774 772 771 770 770 764 754 742 739 740 744 739 743 735 717 711 712 714 716 718 721 720 714 721 705 661 661 664 664 659 654 647 645
808 805 792 790 821 821 808 797 790 784 782 779 778 772 770 776 775 763 751 739 739 740 742 741 747 738 724 717 715 717 715 717 721 726 722 714 688 658 659 659 664 661 652 647 646
810 812 804 804 812 811 809 797 787 784 781 777 776 771 774 772 762 762 752 745 737 738 734 739 746 744 746 727 727 728 718 715 721 730 707 690 690 676 665 672 664 657 653 645 644
816 821 817 822 816 813 808 798 789 787 780 779 778 773 771 765 761 754 749 745 742 738 739 738 737 745 739 730 727 726 722 717 718 710 715 688 692 689 672 673 667 661 651 642 644
824 823 820 819 813 808 802 793 788 785 787 777 778 769 767 767 763 753 751 749 746 742 735 743 740 732 732 727 724 721 712 710 704 703 696 696 690 687 671 668 663 657 651 644 643
821 821 821 814 815 813 808 792 787 789 779 777 772 771 764 754 748 744 742 739 741 738 739 738 739 742 727 714 719 719 698 693 688 686 687 691 684 680 667 669 663 656 648 641 640
Wind_Speed
16 17 18 19 19 20 20 20 19 18 19 20 20 20 22 25 29 27 9 15 12 12 15 16 11 9 5 4 5 5 1 5 7 8 5 2 1 4 3 2 1 4 2 6 4
20 20 20 20 20 19 20 21 21 21 20 18 19 21 22 25 26 15 20 16 14 11 15 8 6 10 4 5 5 5 5 10 6 10 4 3 3 2 3 5 1 2 3 13 8
21 21 21 21 22 22 21 20 20 21 21 20 19 19 21 21 6 6 12 11 14 15 13 12 6 5 6 5 6 8 12 14 6 5 4 8 8 1 4 4 8 4 3 8 4
21 21 22 23 23 24 23 22 21 20 20 20 19 18 17 8 6 1 9 18 18 9 6 5 6 5 8 11 6 5 13 16 5 7 3 9 6 8 7 11 7 9 9 4 8
23 23 24 24 25 25 24 23 22 21 19 16 13 10 7 4 11 14 16 16 16 12 2 5 8 4 8 6 5 15 4 8 19 11 10 6 17 11 18 13 14 14 12 11 10
24 25 25 26 26 25 22 19 22 23 19 13 6 1 3 4 8 17 22 28 26 15 7 7 7 7 5 6 18 3 11 14 7 6 4 5 13 5 1 9 11 11 17 10 10
26 27 28 30 26 22 18 21 23 21 16 8 4 6 5 13 14 20 19 16 20 17 4 10 20 4 3 2 7 2 5 4 6 4 7 7 25 31 17 13 15 19 21 17 11
25 26 27 28 25 21 18 20 20 10 9 3 7 8 7 13 14 14 7 11 19 17 17 20 13 3 5 4 2 4 5 15 15 8 6 10 33 18 14 17 22 20 16 14 18
25 27 26 26 24 23 20 18 20 6 9 6 5 3 10 14 7 15 12 7 19 8 8 14 5 6 3 4 3 4 15 11 8 9 9 16 31 7 4 7 12 10 9 10 11
26 27 26 25 23 20 19 22 19 4 6 1 1 2 7 7 10 13 12 16 4 3 3 4 4 4 4 6 15 9 10 2 6 6 14 14 29 14 13 15 17 14 15 15 13
26 26 24 22 21 14 20 12 7 5 3 5 8 4 17 13 23 6 9 4 3 2 3 4 4 13 16 13 10 4 2 1 0 3 4 17 21 16 9 11 13 16 17 20 21
27 25 23 18 17 8 11 4 4 6 9 9 13 9 22 11 5 6 1 3 4 4 3 4 12 6 3 6 8 6 1 3 5 9 5 5 14 10 7 10 11 17 18 16 14
28 26 20 17 10 4 8 3 12 6 2 8 6 5 8 4 5 7 1 1 1 2 4 7 5 4 6 5 5 5 8 3 6 7 12 9 16 15 12 12 16 17 16 12 16
29 26 19 16 1 9 4 8 21 2 3 5 7 4 8 12 2 23 7 4 4 6 3 5 6 5 6 5 7 4 6 2 1 3 6 3 12 14 13 19 15 14 15 17 9
29 26 17 9 9 4 5 14 9 3 4 10 5 7 15 2 8 3 20 1 8 6 2 9 5 2 4 6 7 12 11 9 6 6 3 1 5 14 4 13 15 19 23 21 14
32 25 15 4 5 8 12 18 3 5 5 6 7 10 12 6 7 6 4 2 3 3 6 17 3 6 7 6 4 1 5 4 3 3 7 6 7 25 10 16 12 13 16 13 13
34 16 5 4 2 11 16 3 4 4 4 6 8 11 15 5 8 5 9 7 3 4 4 3 7 7 5 4 0 3 4 2 1 2 11 14 9 24 5 5 5 3 9 10 9
26 8 0 4 7 13 5 5 4 4 5 6 9 17 5 6 7 7 7 6 4 3 3 3 4 5 6 9 7 6 8 4 6 5 5 7 12 11 12 21 13 8 10 9 9
19 6 3 5 4 6 5 4 6 3 4 7 12 3 4 6 3 6 4 3 4 4 4 3 4 15 3 5 11 4 4 6 2 1 0 4 11 11 13 18 14 4 7 10 10
11 8 6 7 2 5 4 2 3 4 7 7 4 3 5 6 6 5 3 2 4 4 5 4 4 2 13 1 5 7 6 4 2 4 5 4 5 8 7 6 6 8 11 12 11
5 3 10 5 3 5 3 4 4 4 3 4 4 5 5 5 4 4 5 5 1 3 4 4 2 2 2 2 3 3 1 2 4 4 4 2 5 7 6 6 3 7 8 11 15
6 2 10 6 4 1 1 4 5 4 3 4 4 4 4 4 5 5 5 3 2 2 5 3 1 4 4 5 3 4 4 1 5 5 7 3 7 3 7 7 8 13 13 13 8
3 3 6 6 2 3 5 4 4 4 4 3 4 3 3 3 6 5 7 4 6 1 2 3 2 4 7 3 3 1 3 5 1 1 5 5 7 4 9 13 12 15 14 13 3
2 4 4 4 1 2 4 4 6 7 5 4 5 4 2 4 8 6 9 8 4 2 14 2 3 4 4 0 2 5 5 3 4 3 6 18 13 20 21 15 19 20 14 14 5
3 1 0 4 3 5 3 4 7 7 3 4 4 5 10 8 14 15 5 6 9 16 5 3 5 4 8 12 11 13 14 13 12 10 8 5 7 4 18 15 16 16 16 15 5
2 3 3 3 5 4 4 3 8 8 6 9 5 16 15 11 14 21 15 7 6 6 3 2 4 5 8 12 15 16 15 16 18 16 19 16 20 6 18 11 15 18 15 10 6
3 1 2 3 4 3 3 4 9 12 8 9 14 15 14 14 12 19 20 20 15 8 4 2 2 1 4 3 6 9 18 20 18 19 11 17 11 7 16 9 14 13 10 8 8
Wind_Direction
355 351 348 347 344 340 338 335 332 331 331 330 331 331 329 330 325 319 268 261 281 290 302 291 254 194 164 194 182 137 156 228 213 171 237 199 346 302 273 227 252 316 184 269 86
352 350 348 344 341 336 332 329 328 326 326 327 328 328 330 333 321 278 292 276 292 311 286 265 203 171 192 195 193 172 186 224 195 209 240 245 252 186 282 16 221 283 301 46 31
350 348 344 340 337 334 329 325 320 320 320 321 324 329 332 338 314 241 116 21 334 328 269 239 301 196 197 173 206 191 224 228 219 199 217 275 299 315 349 293 244 249 302 335 312
347 344 341 337 334 330 325 320 316 313 311 316 323 330 338 348 313 111 232 305 342 358 221 206 221 207 182 204 197 225 226 234 230 202 229 247 286 275 227 238 246 272 285 259 267
346 343 340 337 334 330 326 321 318 314 310 308 316 332 358 346 249 293 309 316 338 353 242 204 213 171 190 195 200 233 201 222 247 251 253 265 260 260 274 287 293 293 281 266 259
346 343 341 338 335 331 331 335 336 327 314 305 305 312 178 277 286 314 315 314 311 308 297 195 218 218 252 214 201 143 222 240 264 248 243 264 274 262 269 275 280 274 278 253 253
347 347 347 344 340 341 346 347 345 330 316 292 214 187 222 243 300 313 312 314 327 286 254 250 234 262 216 290 237 249 273 285 230 214 251 252 274 256 252 257 259 269 268 276 239
341 346 345 344 344 343 346 350 357 10 9 11 175 187 244 294 311 308 317 320 344 330 236 253 251 246 201 289 348 185 161 243 242 181 235 155 255 254 255 241 249 249 259 259 271
338 342 343 344 344 341 343 350 2 322 16 87 142 159 274 309 272 306 278 286 317 325 262 259 179 201 158 182 0 247 233 217 246 210 189 196 255 181 216 231 251 259 256 248 265
338 339 344 345 347 345 345 348 341 341 13 23 237 284 269 295 307 297 295 288 250 315 302 211 227 193 152 165 213 211 224 235 197 202 198 216 251 251 261 271 273 269 272 267 259
339 340 341 348 351 355 2 360 15 346 14 247 251 244 279 284 303 284 289 208 181 120 218 240 194 217 220 230 261 47 100 65 22 252 244 224 248 252 250 258 263 265 264 268 272
340 340 338 344 346 359 16 65 123 284 301 295 253 248 266 269 291 298 27 195 136 199 302 328 243 237 208 195 246 269 237 219 273 258 224 280 286 278 254 259 251 259 259 260 267
349 341 334 335 341 341 345 26 343 348 265 295 256 256 277 196 278 296 146 295 186 197 215 212 261 204 214 195 205 199 230 208 218 301 286 306 285 278 263 238 254 254 256 253 250
348 340 332 332 37 339 302 329 335 153 41 283 331 323 357 318 296 325 197 216 215 218 225 221 255 229 208 236 215 201 170 184 326 190 256 94 287 269 268 263 251 256 255 252 241
344 336 327 319 296 277 311 330 340 113 348 321 315 306 323 283 284 312 330 166 244 227 191 234 188 239 210 209 188 238 227 244 226 251 284 259 316 279 209 262 255 252 253 254 231
342 331 317 293 265 298 324 333 106 48 267 332 330 331 349 306 311 299 308 248 234 242 269 244 244 177 206 237 196 199 168 144 130 126 243 183 195 278 247 247 245 261 254 255 252
343 328 255 214 268 318 335 47 37 114 327 330 315 327 325 277 312 317 327 308 255 312 229 281 230 228 181 216 213 174 74 98 144 183 233 174 189 239 275 306 208 282 286 267 265
350 10 219 249 291 318 7 54 71 253 268 302 309 312 282 346 318 320 317 332 310 298 330 313 268 184 187 187 186 185 160 174 184 177 238 175 226 239 236 260 275 278 274 289 288
351 351 36 7 339 345 62 53 198 230 301 308 314 286 292 338 292 335 292 261 352 56 341 289 324 330 274 170 158 197 165 207 34 267 142 214 261 289 284 286 283 292 304 295 288
351 340 19 356 26 26 70 263 238 227 295 296 268 254 300 318 326 332 294 288 328 46 162 275 271 201 304 15 172 159 170 107 354 207 240 255 248 232 302 306 314 342 317 304 295
8 41 358 347 322 47 122 241 289 296 29 298 270 283 276 310 288 282 271 294 346 313 316 290 301 267 186 269 140 336 308 153 153 175 220 307 262 216 229 88 353 324 315 308 302
354 52 356 358 42 57 103 306 291 304 320 281 264 256 270 316 294 281 259 234 127 9 315 300 297 283 272 290 30 167 242 253 204 251 252 159 268 311 116 58 8 339 330 324 309
1 295 5 18 72 322 306 286 266 286 288 306 295 295 355 318 292 258 271 290 307 319 271 333 326 314 321 19 50 229 232 219 160 71 218 236 250 285 317 346 354 331 325 322 279
17 1 334 38 54 62 320 302 307 322 269 259 250 258 308 267 266 281 277 303 320 200 291 267 228 229 223 4 42 302 299 303 187 226 245 242 276 296 300 333 330 322 313 320 209
24 307 212 307 325 306 230 278 304 323 259 291 300 238 309 296 303 272 260 292 302 304 284 232 252 217 257 271 277 268 263 263 251 240 237 281 278 279 300 311 308 300 302 325 187
53 24 356 293 286 268 279 257 290 325 310 302 259 308 308 289 283 286 287 269 249 288 237 153 253 214 253 256 248 254 251 251 253 247 256 259 267 249 282 300 306 300 304 306 196
2 349 125 259 303 331 249 280 314 314 279 277 287 301 299 291 284 280 269 266 249 252 250 239 238 272 258 16 333 274 243 232 244 241 237 242 250 250 270 289 288 294 291 277 209